Zurück zum Katalog

STARLINK-37790

AktivKommunikationSSO
NORAD 69312·PAYLOAD·🇺🇸 United States

Gestartet May 30, 2026 von Vandenberg Space Force Base

Loading…

Nächste Überflüge (nächste 24 Stunden)

TLE

AktuellSource: CelesTrak SupGP

Epoche: Sep 14, 2026, 22:39 UTC

1 69312C 26119S   26257.94423611  .00036346  00000+0  11284-2 0  2578
2 69312  97.2829 282.7959 0001340  96.0444 285.5791 15.33417351    18

Verfolge STARLINK-37790 in Echtzeit mit AllMySat

Download on the App Store